Aérodrome :
LOGIN :

S'inscrire | Disclaimer

   EN    FR    IT 

 










Légende :    VFR   VFR Marginal   IFR   IFR Intensif   IFR Très Intensif
Visi : 
Plafond : 
>= 8 km
>= 3000ft
5 à 8 km
1000 à 3000 ft
1500m à 5 km
500 à 1000 ft
800 à 1500m
200 à 500 ft
< 800m
< 200 ft
Symboles :   Orages  Brouillard  Fortes neiges  Fortes précipitations  Vent > 20 kt
SIGMETs :   Divers  Orages  Givrage  Turbulence  Onde Orograph.  Cendres Volcan.






- Altitude de l'aérodrome : 336 ft
- Code IATA : GCI


EGJB - Guernsey

DERNIER METAR :
  • 050650Z 18011KT 9999 FEW004 16/15 Q1007

METARs EXPIRÉS :
  • 050620Z 17009KT 9999 FEW007 BKN041 16/15 Q1008
  • 050550Z 18010KT 9999 -RA FEW007 SCT043 15/14 Q1008
  • 050520Z 18009KT 9999 FEW007 BKN045 16/15 Q1008
  • 050450Z 19008KT 9999 -RA FEW010 BKN045 15/15 Q1009
  • 050420Z 19007KT 9999 FEW008 BKN049 15/14 Q1009

TAF TAF EGJB
Valide du 05 à 06h jusqu'au 05 à 15h UTC


050504Z 0506/0515 18014KT 9999 FEW007 SCT045
PROB40
TEMPO 0506/0515 7000 SHRA BKN005
PROB30
TEMPO 0513/0515 19015G28KT 3000 +SHRA BKN010CB
BECMG 0514/0515 24015KT
ATIS : +44 1481 238 957



MET'MAP, la Météo Aéronautique d'un coup d'oeil ! - Copyright ORBIFLY Décembre 2007 - Disclaimer

ORBIFLY MET'MAP TEAM :

Programmation & Développement : Alexandra Zaïnal
Sur une idée originale de : Baudouin d'Aumeries
Assistance à la programmation : Marc-Olivier Méhu
Soutien technique & logistique : Manuel Goepfert

Contact : metmap@orbifly.com




SOURCES & CREDITS :

   NOAA